Wind_Speed
26 29 31 32 34 37 39 40 41 40 40 40 41 42 42 41 41 41 41 41 42 41 40 38 36 35 34 32 31 29 28 27 26 25 24 24 23 23
25 27 30 32 34 36 38 41 42 42 41 41 41 42 43 42 43 41 41 41 42 42 42 41 39 37 36 34 33 31 30 29 28 28 26 26 25 24
24 26 28 31 33 35 37 39 41 43 43 42 42 43 43 43 43 44 43 43 42 42 43 42 41 40 38 37 35 34 33 31 30 29 29 27 26 26
24 26 28 30 32 34 35 37 39 41 42 43 44 44 44 44 43 44 44 43 43 43 44 44 43 42 41 39 37 35 34 33 31 30 30 29 28 27
24 25 27 29 31 33 34 36 38 39 40 42 43 45 45 45 44 44 45 43 44 44 43 43 43 43 42 40 39 37 36 35 33 32 31 30 30 29
23 23 25 27 29 31 33 35 36 37 38 40 41 43 45 45 45 45 44 44 44 43 42 42 41 42 43 42 40 39 38 36 35 34 33 32 32 31
21 21 22 24 26 28 31 33 34 35 37 38 39 41 42 44 44 44 44 44 44 43 43 42 42 42 41 41 40 40 39 38 37 36 35 34 33 32
20 20 20 20 22 24 27 29 31 33 34 35 37 38 40 41 43 43 43 43 43 44 43 43 43 43 42 41 41 40 40 39 38 37 36 35 35 34
20 19 18 17 18 20 22 25 27 30 32 33 34 36 37 38 40 41 42 42 42 42 44 44 44 44 43 42 41 40 40 40 39 38 37 37 36 35
20 19 17 15 15 15 18 21 23 26 28 30 32 34 35 36 38 39 39 40 40 40 41 42 42 43 43 41 40 40 40 40 40 39 38 38 37 36
21 19 17 15 13 12 13 15 18 21 23 26 29 31 33 34 36 37 38 39 40 40 40 41 41 41 41 40 40 40 40 40 41 40 40 39 38 37
22 20 17 15 13 11 10 11 12 15 18 21 24 26 29 32 34 35 36 37 38 39 39 39 39 40 40 41 41 41 42 41 41 41 40 40 38 36
22 21 19 16 13 11 10 9 9 11 13 15 19 22 25 28 31 33 34 36 36 37 37 39 39 40 41 41 42 43 43 43 42 40 39 38 36 35
22 20 19 17 14 12 11 10 9 9 11 12 15 18 22 25 27 29 31 33 33 34 36 37 38 38 39 40 41 41 41 42 41 40 38 37 35 34
22 20 19 17 15 13 12 11 11 10 10 11 13 14 18 21 24 26 28 29 31 32 34 35 36 37 38 39 39 39 38 38 37 36 36 36 34 32
22 21 19 17 16 14 13 12 12 12 11 11 12 13 15 18 20 23 25 27 28 29 31 32 34 34 35 36 36 36 36 36 36 35 34 32 31 30
21 20 19 18 17 15 14 13 12 12 11 11 11 12 13 15 17 19 21 24 25 26 27 29 30 31 32 32 32 33 34 34 34 34 33 32 31 29
22 21 20 19 18 16 15 14 13 12 12 12 12 12 13 14 16 17 18 19 22 24 26 28 28 29 29 30 31 31 32 32 31 30 30 29 29 29
22 21 21 20 19 18 16 15 14 13 12 12 12 12 12 12 13 15 16 17 19 21 24 26 27 27 28 28 28 28 28 28 28 28 28 27 27 27
24 23 22 21 20 19 18 17 16 15 14 13 13 12 12 13 14 15 16 16 17 19 21 23 24 25 26 27 27 27 27 28 28 28 27 26 26 26
27 26 24 23 22 20 19 18 18 17 16 14 14 14 14 13 13 14 15 15 16 17 18 20 22 23 25 26 26 26 27 27 27 27 28 27 26 25
31 29 28 26 25 24 22 21 20 19 18 17 16 15 15 15 15 15 16 16 16 17 18 19 21 22 23 24 25 25 26 26 26 26 26 26 25 25
36 34 32 31 30 28 26 25 24 22 21 20 19 18 17 17 17 17 17 18 19 19 20 21 22 22 23 23 24 25 25 25 25 24 24 24 25 26
Wind_Direction
263 259 255 252 248 246 245 243 243 243 242 243 243 241 241 241 241 241 240 240 240 241 242 243 244 245 246 248 250 253 255 258 260 262 264 267 270 273
270 264 259 254 250 248 246 245 244 244 243 242 242 241 241 241 241 241 242 242 241 241 242 242 244 244 244 246 248 252 254 257 259 261 263 265 268 272
277 270 264 258 253 250 247 246 245 244 244 243 242 241 240 240 239 239 242 241 240 240 240 241 243 242 242 244 247 250 253 255 258 260 261 264 267 270
284 276 268 262 256 252 248 246 245 244 244 243 243 242 242 241 240 240 241 241 240 240 240 241 241 242 241 243 246 248 251 254 256 259 260 263 266 269
291 281 273 265 259 254 250 248 245 244 243 242 242 242 241 241 241 241 240 241 242 241 240 240 241 241 241 242 244 246 249 252 254 258 260 262 264 268
298 288 278 270 263 257 253 250 247 245 244 243 241 241 241 240 241 241 240 242 242 240 239 239 240 240 240 241 243 246 248 251 253 256 259 261 263 268
309 298 287 277 268 260 255 252 248 246 245 243 242 241 241 241 240 241 241 242 242 241 239 239 239 240 241 242 243 245 247 250 253 255 259 260 263 266
320 311 298 286 274 265 259 254 250 246 244 243 242 241 241 241 240 240 240 241 241 241 241 238 239 240 240 240 242 245 246 249 252 255 258 259 262 264
331 324 312 299 284 271 263 256 251 248 246 244 242 241 241 241 239 238 239 239 239 240 241 240 241 241 240 240 241 243 245 248 251 253 256 259 260 261
341 337 328 314 298 284 270 260 255 250 247 245 243 241 239 240 240 239 239 238 238 239 239 240 240 241 240 240 240 242 244 246 249 251 254 256 257 257
350 347 341 331 318 302 284 268 258 251 248 247 244 241 239 238 239 240 240 240 239 239 239 239 240 240 240 239 241 243 243 245 247 250 252 253 255 254
354 352 347 341 333 322 303 283 265 253 250 249 245 241 239 238 238 239 239 240 241 240 239 238 239 238 238 238 240 240 240 242 247 248 250 251 252 252
354 354 352 348 342 333 323 308 282 263 257 253 249 244 240 240 238 237 238 239 241 240 237 236 237 238 238 239 238 239 241 242 244 247 249 249 248 249
352 352 352 349 344 336 327 320 305 283 270 265 254 245 240 240 240 239 238 239 239 238 236 235 236 237 238 239 238 239 240 241 242 244 246 244 243 244
349 348 348 347 343 337 328 319 313 303 289 276 265 252 244 241 238 238 237 237 237 237 237 236 235 236 236 237 237 236 237 239 240 240 241 241 241 241
343 344 343 343 340 335 328 321 315 309 301 287 274 262 252 247 242 239 237 236 237 238 237 235 234 236 235 233 233 234 235 235 235 235 236 237 238 240
336 337 337 336 334 330 325 321 315 309 303 295 284 272 263 254 248 244 240 239 237 236 236 235 233 232 232 232 232 232 232 232 233 235 235 234 237 238
329 330 330 330 329 326 324 320 315 309 301 293 285 280 273 264 256 250 243 240 238 237 234 230 229 229 229 229 229 229 229 229 230 232 231 233 236 237
319 321 322 323 322 321 318 316 313 308 301 294 288 281 277 268 258 254 249 245 241 238 233 230 227 227 227 226 226 225 225 226 228 229 230 234 235 235
309 310 311 312 313 312 311 309 307 303 298 292 287 281 275 269 259 253 250 246 239 233 230 227 226 226 226 226 226 225 225 226 228 230 232 234 232 232
300 300 301 301 301 302 301 300 299 297 293 287 283 279 274 269 261 255 251 246 237 232 233 230 226 224 223 224 225 226 226 227 229 231 231 231 230 229
294 293 292 292 291 291 290 290 289 288 285 282 279 276 272 267 261 255 251 247 241 235 233 229 226 226 225 223 223 225 226 228 230 231 228 226 225 223
290 289 287 285 284 283 282 281 280 278 277 275 274 272 268 263 258 253 249 246 243 241 237 234 233 231 230 228 226 227 228 229 227 226 224 223 222 223
Height
5765 5767 5769 5771 5774 5776 5780 5783 5788 5791 5796 5801 5805 5809 5812 5817 5821 5825 5829 5833 5837 5841 5845 5849 5853 5856 5859 5861 5863 5865 5867 5868 5869 5870 5871 5871 5872 5872
5758 5758 5759 5761 5763 5766 5769 5773 5776 5781 5785 5790 5794 5798 5802 5807 5811 5815 5820 5823 5828 5832 5836 5841 5844 5848 5851 5853 5856 5858 5860 5861 5863 5864 5865 5866 5866 5866
5750 5750 5750 5751 5753 5755 5758 5762 5765 5769 5774 5779 5783 5787 5792 5796 5801 5805 5810 5814 5818 5822 5827 5831 5835 5839 5842 5845 5848 5850 5853 5854 5856 5857 5858 5859 5860 5860
5742 5741 5741 5741 5743 5745 5748 5751 5754 5758 5762 5767 5772 5776 5780 5785 5790 5795 5799 5804 5808 5813 5817 5821 5825 5829 5833 5836 5839 5842 5845 5847 5849 5850 5852 5853 5853 5854
5734 5732 5731 5731 5732 5734 5737 5740 5743 5746 5750 5755 5760 5764 5769 5774 5779 5783 5788 5793 5798 5802 5806 5810 5815 5819 5823 5827 5831 5834 5837 5839 5841 5843 5844 5845 5847 5847
5726 5723 5722 5722 5722 5724 5726 5729 5732 5736 5739 5744 5748 5753 5757 5762 5767 5773 5777 5782 5787 5791 5796 5800 5805 5809 5813 5818 5822 5825 5828 5830 5833 5835 5836 5838 5839 5840
5719 5716 5714 5713 5713 5714 5716 5719 5722 5725 5729 5733 5737 5742 5746 5751 5756 5761 5766 5771 5776 5781 5786 5790 5795 5799 5803 5808 5812 5816 5819 5822 5824 5826 5828 5830 5831 5832
5714 5711 5708 5706 5705 5705 5706 5709 5712 5715 5719 5723 5727 5731 5735 5740 5745 5750 5755 5761 5766 5772 5775 5780 5784 5789 5793 5798 5802 5806 5809 5812 5815 5817 5819 5821 5823 5824
5710 5706 5703 5700 5698 5698 5699 5701 5703 5706 5710 5713 5717 5721 5726 5730 5735 5740 5744 5749 5755 5759 5763 5769 5774 5778 5783 5787 5792 5796 5799 5802 5806 5808 5810 5813 5814 5816
5708 5703 5700 5697 5695 5693 5693 5694 5696 5698 5701 5705 5709 5712 5716 5720 5724 5729 5733 5738 5743 5748 5753 5758 5763 5768 5772 5777 5781 5786 5789 5793 5796 5799 5801 5803 5805 5807
5707 5702 5698 5695 5693 5691 5690 5690 5691 5692 5694 5697 5700 5703 5707 5711 5715 5720 5724 5728 5733 5738 5743 5748 5752 5757 5762 5766 5771 5776 5779 5782 5786 5789 5792 5794 5796 5798
5707 5702 5698 5695 5692 5690 5688 5687 5687 5688 5689 5691 5693 5696 5699 5703 5706 5710 5715 5719 5723 5728 5733 5737 5742 5747 5751 5756 5761 5765 5769 5772 5776 5779 5782 5785 5787 5789
5707 5703 5699 5695 5692 5689 5687 5686 5685 5685 5685 5686 5688 5690 5692 5696 5699 5702 5706 5710 5714 5719 5723 5728 5732 5737 5741 5746 5750 5755 5759 5762 5766 5769 5772 5775 5778 5781
5707 5703 5699 5695 5692 5689 5687 5685 5684 5683 5683 5683 5684 5685 5687 5689 5692 5695 5698 5702 5706 5710 5714 5718 5723 5727 5732 5736 5740 5744 5748 5752 5756 5759 5763 5766 5769 5772
5707 5703 5699 5695 5692 5689 5686 5685 5683 5682 5681 5680 5680 5680 5682 5684 5686 5688 5691 5694 5698 5701 5705 5709 5714 5718 5722 5726 5730 5735 5739 5743 5746 5750 5754 5758 5761 5764
5706 5702 5698 5694 5691 5688 5686 5683 5681 5680 5679 5678 5677 5677 5678 5679 5680 5682 5685 5687 5691 5694 5697 5700 5705 5709 5713 5717 5721 5725 5730 5734 5738 5742 5745 5749 5753 5756
5705 5701 5697 5694 5690 5687 5685 5682 5680 5678 5676 5676 5675 5675 5675 5675 5676 5677 5679 5681 5684 5687 5690 5693 5697 5701 5705 5708 5712 5717 5721 5725 5730 5734 5737 5741 5745 5748
5702 5699 5695 5692 5689 5686 5683 5680 5678 5676 5674 5673 5672 5672 5672 5672 5672 5673 5674 5676 5678 5680 5683 5686 5690 5694 5698 5702 5706 5709 5713 5718 5722 5726 5729 5733 5737 5740
5699 5696 5692 5689 5686 5683 5680 5678 5676 5674 5672 5670 5669 5669 5668 5668 5668 5669 5670 5671 5672 5674 5677 5680 5683 5687 5691 5695 5699 5703 5707 5710 5714 5718 5722 5726 5729 5733
5694 5691 5688 5685 5683 5680 5677 5675 5673 5671 5669 5668 5666 5666 5665 5665 5665 5665 5666 5667 5668 5670 5672 5675 5678 5682 5686 5689 5693 5697 5700 5704 5708 5711 5715 5718 5722 5725
5688 5686 5683 5681 5678 5676 5673 5671 5669 5667 5665 5664 5663 5662 5662 5661 5661 5661 5662 5663 5664 5666 5668 5671 5673 5676 5680 5683 5687 5691 5694 5698 5701 5705 5708 5711 5715 5718
5680 5678 5676 5674 5672 5670 5668 5666 5664 5663 5661 5660 5659 5658 5658 5657 5657 5657 5658 5659 5660 5662 5664 5666 5668 5671 5674 5678 5681 5684 5688 5692 5695 5698 5701 5705 5708 5712
5670 5668 5667 5666 5664 5663 5661 5660 5658 5657 5656 5655 5654 5653 5653 5653 5653 5653 5654 5655 5656 5658 5660 5662 5664 5666 5669 5672 5675 5678 5681 5685 5688 5691 5695 5698 5701 5705